Hourly Data Report for February 19, 2018

TORONTO CITY
ONTARIO

43°40'00.000" N
79°24'00.000" W
112.50 m
6158355
71508
XTO

Download Data

Hourly Data (February 2018)
Hourly Data Report for February 19, 2018
TIME
LST
Temp Definition
°C
Dew Point Definition
°C
Rel Hum Definition
%
Precip. Amount Definition
mm

Wind Dir Definition
10's deg

Wind Spd Definition
km/h
Visibility Definition
km
Stn Press Definition
kPa
Hmdx Definition


Wind Chill Definition


Weather Definition


00:00 0.9 -3.7 71 0.0 LegendMM LegendMM   100.98     LegendNANA
01:00 0.9 -3.3 73 0.0 LegendMM LegendMM   100.90     LegendNANA
02:00 0.9 -3.0 75 0.0 LegendMM LegendMM   100.77     LegendNANA
03:00 1.2 -3.0 74 0.0 LegendMM LegendMM   100.68     LegendNANA
04:00 1.6 -2.8 72 0.0 LegendMM LegendMM   100.66     LegendNANA
05:00 2.0 -3.5 67 0.0 LegendMM LegendMM   100.58     LegendNANA
06:00 1.3 -3.4 71 0.0 LegendMM LegendMM   100.59     LegendNANA
07:00 1.2 -3.0 73 0.0 LegendMM LegendMM   100.57     LegendNANA
08:00 2.0 -2.6 72 0.0 LegendMM LegendMM   100.58     LegendNANA
09:00 2.9 -2.4 68 0.0 LegendMM LegendMM   100.49     LegendNANA
10:00 4.0 -2.2 64 0.0 LegendMM LegendMM   100.44     LegendNANA
11:00 5.3 -0.8 65 0.0 LegendMM LegendMM   100.45     LegendNANA
12:00 4.6 -0.1 72 0.0 LegendMM LegendMM   100.42     LegendNANA
13:00 3.9 1.7 85 0.0 LegendMM LegendMM   100.35     LegendNANA
14:00 3.4 2.2 91 0.0 LegendMM LegendMM   100.35     LegendNANA
15:00 3.3 2.2 93 0.0 LegendMM LegendMM   100.30     LegendNANA
16:00 3.7 2.8 94 0.0 LegendMM LegendMM   100.31     LegendNANA
17:00 3.9 3.0 94 0.0 LegendMM LegendMM   100.32     LegendNANA
18:00 4.4 3.6 95 0.3 LegendMM LegendMM   100.25     LegendNANA
19:00 4.3 3.5 94 0.8 LegendMM LegendMM   100.22     LegendNANA
20:00 4.2 3.3 94 1.7 LegendMM LegendMM   100.23     LegendNANA
21:00 4.7 3.8 94 1.2 LegendMM LegendMM   100.25     LegendNANA
22:00 5.0 4.1 94 2.5 LegendMM LegendMM   100.22     LegendNANA
23:00 4.9 3.9 94 2.8 LegendMM LegendMM   100.27     LegendNANA

Notes on Data Quality.

Legend

  • E = Estimated
  • M = Missing
  • NA = Not Available*
  • [empty] = Indicates an unobserved value
Date modified: